Time,TemperatureF,DewpointF,PressureIn,WindDirection,WindDirectionDegrees,WindSpeedMPH,WindSpeedGustMPH,Humidity,HourlyPrecipIn,Conditions,Clouds,dailyrainin,SoftwareType,DateUTC
2013-08-01 00:00:00,54.0,52.9,30.02,SW,217,0.0,0.0,96,0.00,,,0.00,Wunderground v.1.15,2013-08-01 04:00:00,
2013-08-01 00:05:00,53.9,52.8,30.02,SW,217,0.0,0.0,96,0.00,,,0.00,Wunderground v.1.15,2013-08-01 04:05:00,
2013-08-01 00:10:00,53.8,52.7,30.02,SW,217,0.0,0.0,96,0.00,,,0.00,Wunderground v.1.15,2013-08-01 04:10:00,
2013-08-01 00:20:00,53.5,52.4,30.02,SW,217,0.0,0.0,96,0.00,,,0.00,Wunderground v.1.15,2013-08-01 04:20:00,
2013-08-01 00:25:00,53.5,52.4,30.02,SW,217,0.0,0.0,96,0.00,,,0.00,Wunderground v.1.15,2013-08-01 04:25:00,
2013-08-01 00:30:00,53.3,52.2,30.02,SW,217,0.0,0.0,96,0.00,,,0.00,Wunderground v.1.15,2013-08-01 04:30:00,
2013-08-01 00:35:00,53.2,52.1,30.02,SW,217,0.0,0.0,96,0.00,,,0.00,Wunderground v.1.15,2013-08-01 04:35:00,
2013-08-01 00:40:00,53.0,51.9,30.02,SW,217,0.0,0.0,96,0.00,,,0.00,Wunderground v.1.15,2013-08-01 04:40:00,
2013-08-01 00:45:00,53.0,51.9,30.02,SW,217,0.0,0.0,96,0.00,,,0.00,Wunderground v.1.15,2013-08-01 04:45:00,
2013-08-01 00:50:00,52.9,51.8,30.02,SW,217,0.0,0.0,96,0.00,,,0.00,Wunderground v.1.15,2013-08-01 04:50:00,
2013-08-01 00:56:00,52.8,51.7,30.02,SW,217,0.0,0.0,96,0.00,,,0.00,Wunderground v.1.15,2013-08-01 04:56:00,
2013-08-01 01:00:00,52.7,51.6,30.02,SW,217,0.0,0.0,96,0.00,,,0.00,Wunderground v.1.15,2013-08-01 05:00:00,
2013-08-01 01:05:00,52.7,51.6,30.02,SW,217,0.0,0.0,96,0.00,,,0.00,Wunderground v.1.15,2013-08-01 05:05:00,
2013-08-01 01:15:00,52.4,51.3,30.02,SW,217,0.0,0.0,96,0.00,,,0.00,Wunderground v.1.15,2013-08-01 05:15:00,
2013-08-01 01:21:00,52.3,51.2,30.02,SW,217,0.0,0.0,96,0.00,,,0.00,Wunderground v.1.15,2013-08-01 05:21:00,
2013-08-01 01:25:00,52.2,51.1,30.02,SW,217,0.0,0.0,96,0.00,,,0.00,Wunderground v.1.15,2013-08-01 05:25:00,
2013-08-01 01:30:00,52.1,51.0,30.02,SW,217,0.0,0.0,96,0.00,,,0.00,Wunderground v.1.15,2013-08-01 05:30:00,
2013-08-01 01:35:00,52.1,51.0,30.02,SW,217,0.0,0.0,96,0.00,,,0.00,Wunderground v.1.15,2013-08-01 05:35:00,
2013-08-01 01:46:00,52.0,50.9,30.02,SW,217,0.0,1.0,96,0.00,,,0.00,Wunderground v.1.15,2013-08-01 05:46:00,
2013-08-01 01:51:00,52.1,51.3,30.02,SW,217,0.0,1.0,97,0.00,,,0.00,Wunderground v.1.15,2013-08-01 05:51:00,
2013-08-01 01:55:00,51.9,50.8,30.02,SW,217,0.0,0.0,96,0.00,,,0.00,Wunderground v.1.15,2013-08-01 05:55:00,
2013-08-01 02:00:00,51.9,50.8,30.02,SW,217,0.0,0.0,96,0.00,,,0.00,Wunderground v.1.15,2013-08-01 06:00:00,
2013-08-01 02:05:00,51.8,50.7,30.02,SW,217,0.0,0.0,96,0.00,,,0.00,Wunderground v.1.15,2013-08-01 06:05:00,
2013-08-01 02:10:00,51.8,50.7,30.02,SW,217,0.0,0.0,96,0.00,,,0.00,Wunderground v.1.15,2013-08-01 06:10:00,
2013-08-01 02:15:00,51.6,50.5,30.02,SW,217,0.0,0.0,96,0.00,,,0.00,Wunderground v.1.15,2013-08-01 06:15:00,
2013-08-01 02:20:00,51.5,50.4,30.02,SW,217,0.0,0.0,96,0.00,,,0.00,Wunderground v.1.15,2013-08-01 06:20:00,
2013-08-01 02:25:00,51.4,50.3,30.01,SW,217,0.0,0.0,96,0.00,,,0.00,Wunderground v.1.15,2013-08-01 06:25:00,
2013-08-01 02:30:00,51.4,50.6,30.01,SW,217,0.0,0.0,97,0.00,,,0.00,Wunderground v.1.15,2013-08-01 06:30:00,
2013-08-01 02:35:00,51.3,50.5,30.01,SW,217,0.0,0.0,97,0.00,,,0.00,Wunderground v.1.15,2013-08-01 06:35:00,
2013-08-01 02:40:00,51.4,50.6,30.01,SW,217,0.0,0.0,97,0.00,,,0.00,Wunderground v.1.15,2013-08-01 06:40:00,
2013-08-01 02:45:00,51.4,50.6,30.01,SW,217,0.0,0.0,97,0.00,,,0.00,Wunderground v.1.15,2013-08-01 06:45:00,
2013-08-01 02:50:00,51.4,50.6,30.01,SW,217,0.0,0.0,97,0.00,,,0.00,Wunderground v.1.15,2013-08-01 06:50:00,
2013-08-01 02:55:00,51.3,50.5,30.01,SW,217,0.0,0.0,97,0.00,,,0.00,Wunderground v.1.15,2013-08-01 06:55:00,
2013-08-01 03:00:00,51.3,50.5,30.01,SW,217,0.0,0.0,97,0.00,,,0.00,Wunderground v.1.15,2013-08-01 07:00:00,
2013-08-01 03:05:00,51.2,50.4,30.00,SW,217,0.0,0.0,97,0.00,,,0.00,Wunderground v.1.15,2013-08-01 07:05:00,
2013-08-01 03:10:00,51.2,50.4,30.00,SW,217,0.0,0.0,97,0.00,,,0.00,Wunderground v.1.15,2013-08-01 07:10:00,
2013-08-01 03:21:00,51.2,50.4,30.00,SW,217,0.0,0.0,97,0.00,,,0.00,Wunderground v.1.15,2013-08-01 07:21:00,
2013-08-01 03:26:00,51.0,50.2,30.00,SW,217,0.0,0.0,97,0.00,,,0.00,Wunderground v.1.15,2013-08-01 07:26:00,
2013-08-01 03:30:00,51.0,50.2,30.00,SW,217,0.0,0.0,97,0.00,,,0.00,Wunderground v.1.15,2013-08-01 07:30:00,
2013-08-01 03:40:00,50.7,49.9,30.00,SW,217,0.0,0.0,97,0.00,,,0.00,Wunderground v.1.15,2013-08-01 07:40:00,
2013-08-01 04:01:00,50.5,49.7,29.99,SW,217,0.0,0.0,97,0.00,,,0.00,Wunderground v.1.15,2013-08-01 08:01:00,
2013-08-01 04:20:00,50.6,49.8,29.99,SW,217,0.0,0.0,97,0.00,,,0.00,Wunderground v.1.15,2013-08-01 08:20:00,
2013-08-01 04:25:00,50.8,50.0,29.99,SW,217,0.0,0.0,97,0.00,,,0.00,Wunderground v.1.15,2013-08-01 08:25:00,
2013-08-01 04:30:00,50.8,50.0,29.99,SW,217,0.0,0.0,97,0.00,,,0.00,Wunderground v.1.15,2013-08-01 08:30:00,
2013-08-01 04:35:00,50.7,49.9,29.99,SW,217,0.0,0.0,97,0.00,,,0.00,Wunderground v.1.15,2013-08-01 08:35:00,
2013-08-01 04:40:00,50.6,49.8,29.99,SW,217,0.0,0.0,97,0.00,,,0.00,Wunderground v.1.15,2013-08-01 08:40:00,
2013-08-01 04:45:00,50.6,49.8,29.99,SW,217,0.0,0.0,97,0.00,,,0.00,Wunderground v.1.15,2013-08-01 08:45:00,
2013-08-01 04:50:00,50.6,49.8,29.99,SW,217,0.0,0.0,97,0.00,,,0.00,Wunderground v.1.15,2013-08-01 08:50:00,
2013-08-01 05:06:00,50.4,49.6,29.99,SW,217,0.0,0.0,97,0.00,,,0.00,Wunderground v.1.15,2013-08-01 09:06:00,
2013-08-01 05:15:00,50.4,49.6,29.99,SW,217,0.0,0.0,97,0.00,,,0.00,Wunderground v.1.15,2013-08-01 09:15:00,
2013-08-01 05:20:00,50.3,49.5,29.99,SW,217,0.0,0.0,97,0.00,,,0.00,Wunderground v.1.15,2013-08-01 09:20:00,
2013-08-01 05:35:00,49.9,49.1,29.99,SW,217,0.0,0.0,97,0.00,,,0.00,Wunderground v.1.15,2013-08-01 09:35:00,
2013-08-01 05:40:00,49.8,49.0,29.99,SW,217,0.0,0.0,97,0.00,,,0.00,Wunderground v.1.15,2013-08-01 09:40:00,
2013-08-01 05:55:00,49.7,48.9,29.99,SW,217,0.0,0.0,97,0.00,,,0.00,Wunderground v.1.15,2013-08-01 09:55:00,
2013-08-01 06:15:00,49.7,48.9,29.99,SW,217,0.0,0.0,97,0.00,,,0.00,Wunderground v.1.15,2013-08-01 10:15:00,
2013-08-01 06:20:00,49.7,48.9,29.99,SW,217,0.0,0.0,97,0.00,,,0.00,Wunderground v.1.15,2013-08-01 10:20:00,
2013-08-01 06:25:00,49.8,49.3,29.99,SW,217,0.0,0.0,98,0.00,,,0.00,Wunderground v.1.15,2013-08-01 10:25:00,
2013-08-01 06:30:00,50.3,49.8,29.99,NNE,22,0.0,0.0,98,0.00,,,0.00,Wunderground v.1.15,2013-08-01 10:30:00,
2013-08-01 06:45:00,50.9,50.4,29.99,NNE,22,0.0,0.0,98,0.00,,,0.00,Wunderground v.1.15,2013-08-01 10:45:00,
2013-08-01 06:50:00,51.3,50.8,29.99,NNE,22,0.0,0.0,98,0.00,,,0.00,Wunderground v.1.15,2013-08-01 10:50:00,
2013-08-01 07:05:00,53.2,52.9,29.99,NNE,22,0.0,0.0,99,0.00,,,0.00,Wunderground v.1.15,2013-08-01 11:05:00,
2013-08-01 07:15:00,53.8,53.5,29.99,NNE,22,0.0,0.0,99,0.00,,,0.00,Wunderground v.1.15,2013-08-01 11:15:00,
2013-08-01 07:20:00,54.3,53.7,29.99,NNE,22,0.0,0.0,98,0.00,,,0.00,Wunderground v.1.15,2013-08-01 11:20:00,
2013-08-01 08:05:00,60.2,59.9,29.98,SSE,153,3.0,5.0,99,0.00,,,0.00,Wunderground v.1.15,2013-08-01 12:05:00,
2013-08-01 08:15:00,61.5,59.8,29.98,SSE,150,3.0,3.0,94,0.00,,,0.00,Wunderground v.1.15,2013-08-01 12:15:00,
2013-08-01 08:30:00,63.3,59.7,29.97,SE,146,4.0,4.0,88,0.00,,,0.00,Wunderground v.1.15,2013-08-01 12:30:00,
2013-08-01 08:35:00,63.8,59.9,29.97,SE,141,3.0,4.0,87,0.00,,,0.00,Wunderground v.1.15,2013-08-01 12:35:00,
2013-08-01 08:45:00,64.4,59.8,29.97,SSE,148,4.0,4.0,85,0.00,,,0.00,Wunderground v.1.15,2013-08-01 12:45:00,
2013-08-01 08:55:00,65.2,60.2,29.96,SE,146,3.0,3.0,84,0.00,,,0.00,Wunderground v.1.15,2013-08-01 12:55:00,
2013-08-01 09:10:00,66.3,60.6,29.95,SSE,149,6.0,6.0,82,0.00,,,0.00,Wunderground v.1.15,2013-08-01 13:10:00,
2013-08-01 09:15:00,66.5,60.1,29.95,SSE,153,6.0,6.0,80,0.00,,,0.00,Wunderground v.1.15,2013-08-01 13:15:00,
2013-08-01 09:20:00,67.0,60.6,29.95,SE,133,5.0,5.0,80,0.00,,,0.00,Wunderground v.1.15,2013-08-01 13:20:00,
2013-08-01 09:41:00,68.1,61.0,29.94,ESE,123,4.0,4.0,78,0.00,,,0.00,Wunderground v.1.15,2013-08-01 13:41:00,
2013-08-01 09:56:00,69.1,61.6,29.93,SSE,150,6.0,6.0,77,0.00,,,0.00,Wunderground v.1.15,2013-08-01 13:56:00,
2013-08-01 10:06:00,69.3,60.7,29.93,SE,136,5.0,9.0,74,0.00,,,0.00,Wunderground v.1.15,2013-08-01 14:06:00,
2013-08-01 10:25:00,70.0,60.6,29.92,SE,136,8.0,14.0,72,0.00,,,0.00,Wunderground v.1.15,2013-08-01 14:25:00,
2013-08-01 10:30:00,70.3,60.8,29.92,SSE,162,9.0,14.0,72,0.00,,,0.00,Wunderground v.1.15,2013-08-01 14:30:00,
2013-08-01 10:45:00,70.9,61.0,29.91,SSE,150,9.0,10.0,71,0.00,,,0.00,Wunderground v.1.15,2013-08-01 14:45:00,
2013-08-01 10:51:00,71.5,61.2,29.91,SE,140,7.0,10.0,70,0.00,,,0.00,Wunderground v.1.15,2013-08-01 14:51:00,
2013-08-01 11:21:00,73.1,61.9,29.89,South,177,6.0,7.0,68,0.00,,,0.00,Wunderground v.1.15,2013-08-01 15:21:00,
2013-08-01 11:35:00,74.0,61.0,29.89,ENE,77,7.0,8.0,64,0.00,,,0.00,Wunderground v.1.15,2013-08-01 15:35:00,
2013-08-01 11:45:00,74.7,60.4,29.89,NNE,33,7.0,7.0,61,0.00,,,0.00,Wunderground v.1.15,2013-08-01 15:45:00,
2013-08-01 11:55:00,74.9,59.1,29.88,SSE,148,7.0,8.0,58,0.00,,,0.00,Wunderground v.1.15,2013-08-01 15:55:00,
2013-08-01 12:11:00,75.0,59.2,29.88,SE,143,8.0,18.0,58,0.00,,,0.00,Wunderground v.1.15,2013-08-01 16:11:00,
2013-08-01 12:15:00,74.9,59.6,29.88,SE,144,8.0,18.0,59,0.00,,,0.00,Wunderground v.1.15,2013-08-01 16:15:00,
2013-08-01 12:25:00,75.1,59.8,29.87,ESE,115,8.0,9.0,59,0.00,,,0.00,Wunderground v.1.15,2013-08-01 16:25:00,
2013-08-01 12:41:00,76.0,60.6,29.86,South,179,5.0,7.0,59,0.00,,,0.00,Wunderground v.1.15,2013-08-01 16:41:00,
2013-08-01 12:46:00,75.3,60.0,29.86,SE,139,5.0,6.0,59,0.00,,,0.00,Wunderground v.1.15,2013-08-01 16:46:00,
2013-08-01 12:50:00,74.7,59.9,29.86,SE,134,7.0,12.0,60,0.00,,,0.00,Wunderground v.1.15,2013-08-01 16:50:00,
2013-08-01 12:55:00,74.7,60.8,29.86,South,185,8.0,8.0,62,0.00,,,0.00,Wunderground v.1.15,2013-08-01 16:55:00,
2013-08-01 13:10:00,74.8,60.4,29.85,South,174,8.0,8.0,61,0.00,,,0.00,Wunderground v.1.15,2013-08-01 17:10:00,
2013-08-01 13:15:00,75.0,60.2,29.85,SE,137,8.0,8.0,60,0.00,,,0.00,Wunderground v.1.15,2013-08-01 17:15:00,
2013-08-01 13:20:00,74.9,60.1,29.85,ESE,118,8.0,8.0,60,0.00,,,0.00,Wunderground v.1.15,2013-08-01 17:20:00,
2013-08-01 13:35:00,75.7,60.8,29.84,SE,144,6.0,6.0,60,0.00,,,0.00,Wunderground v.1.15,2013-08-01 17:35:00,
2013-08-01 13:40:00,75.5,61.1,29.84,SE,136,6.0,12.0,61,0.00,,,0.00,Wunderground v.1.15,2013-08-01 17:40:00,
2013-08-01 13:45:00,75.6,60.7,29.84,SE,134,7.0,12.0,60,0.00,,,0.00,Wunderground v.1.15,2013-08-01 17:45:00,
2013-08-01 13:50:00,76.6,63.5,29.84,SE,135,8.0,8.0,64,0.00,,,0.00,Wunderground v.1.15,2013-08-01 17:50:00,
2013-08-01 13:55:00,76.8,60.9,29.84,South,173,8.0,8.0,58,0.00,,,0.00,Wunderground v.1.15,2013-08-01 17:55:00,
2013-08-01 14:00:00,75.8,60.0,29.84,SSE,148,9.0,13.0,58,0.00,,,0.00,Wunderground v.1.15,2013-08-01 18:00:00,
2013-08-01 14:10:00,76.0,60.6,29.83,SE,146,7.0,7.0,59,0.00,,,0.00,Wunderground v.1.15,2013-08-01 18:10:00,
2013-08-01 14:25:00,76.5,60.1,29.83,SSE,164,8.0,9.0,57,0.00,,,0.00,Wunderground v.1.15,2013-08-01 18:25:00,
2013-08-01 14:35:00,75.9,60.5,29.83,SSE,165,9.0,10.0,59,0.00,,,0.00,Wunderground v.1.15,2013-08-01 18:35:00,
2013-08-01 15:05:00,73.8,60.9,29.83,SE,137,5.0,12.0,64,0.00,,,0.00,Wunderground v.1.15,2013-08-01 19:05:00,
2013-08-01 15:10:00,73.7,60.3,29.82,ESE,112,5.0,5.0,63,0.00,,,0.00,Wunderground v.1.15,2013-08-01 19:10:00,
2013-08-01 15:40:00,73.3,60.8,29.82,East,96,7.0,7.0,65,0.00,,,0.00,Wunderground v.1.15,2013-08-01 19:40:00,
2013-08-01 15:50:00,73.0,60.5,29.82,SE,128,5.0,5.0,65,0.00,,,0.00,Wunderground v.1.15,2013-08-01 19:50:00,
2013-08-01 16:10:00,72.3,61.1,29.82,SE,132,6.0,6.0,68,0.00,,,0.00,Wunderground v.1.15,2013-08-01 20:10:00,
2013-08-01 16:15:00,72.1,61.0,29.82,SE,140,6.0,8.0,68,0.00,,,0.00,Wunderground v.1.15,2013-08-01 20:15:00,
2013-08-01 16:30:00,71.4,60.7,29.81,East,79,3.0,5.0,69,0.00,,,0.00,Wunderground v.1.15,2013-08-01 20:30:00,
2013-08-01 16:35:00,71.5,61.2,29.81,SSE,155,3.0,5.0,70,0.00,,,0.00,Wunderground v.1.15,2013-08-01 20:35:00,
2013-08-01 16:45:00,71.7,61.4,29.81,SSE,155,3.0,3.0,70,0.00,,,0.00,Wunderground v.1.15,2013-08-01 20:45:00,
2013-08-01 16:55:00,72.0,61.3,29.82,ESE,110,6.0,8.0,69,0.00,,,0.00,Wunderground v.1.15,2013-08-01 20:55:00,
2013-08-01 17:05:00,71.5,61.6,29.82,SSE,156,7.0,9.0,71,0.00,,,0.00,Wunderground v.1.15,2013-08-01 21:05:00,
2013-08-01 17:15:00,70.7,61.6,29.82,SSE,153,6.0,10.0,73,0.00,,,0.00,Wunderground v.1.15,2013-08-01 21:15:00,
2013-08-01 17:25:00,70.0,61.3,29.82,ESE,109,6.0,6.0,74,0.00,,,0.00,Wunderground v.1.15,2013-08-01 21:25:00,
2013-08-01 17:30:00,69.8,61.5,29.82,SE,142,5.0,6.0,75,0.00,,,0.00,Wunderground v.1.15,2013-08-01 21:30:00,
2013-08-01 17:35:00,69.5,61.6,29.82,SSE,148,5.0,6.0,76,0.00,,,0.00,Wunderground v.1.15,2013-08-01 21:35:00,
2013-08-01 17:45:00,69.1,61.9,29.82,South,182,5.0,6.0,78,0.00,,,0.00,Wunderground v.1.15,2013-08-01 21:45:00,
2013-08-01 17:55:00,68.7,62.3,29.82,SSE,151,6.0,8.0,80,0.00,,,0.00,Wunderground v.1.15,2013-08-01 21:55:00,
2013-08-01 18:05:00,68.3,62.6,29.82,ENE,60,7.0,9.0,82,0.00,,,0.00,Wunderground v.1.15,2013-08-01 22:05:00,
2013-08-01 18:10:00,68.1,62.7,29.82,SE,141,7.0,11.0,83,0.00,,,0.00,Wunderground v.1.15,2013-08-01 22:10:00,
2013-08-01 18:16:00,67.8,62.4,29.83,SE,136,7.0,11.0,83,0.00,,,0.00,Wunderground v.1.15,2013-08-01 22:16:00,
2013-08-01 18:20:00,67.4,62.4,29.83,ESE,115,7.0,7.0,84,0.00,,,0.00,Wunderground v.1.15,2013-08-01 22:20:00,
2013-08-01 18:30:00,67.0,62.3,29.83,East,86,5.0,7.0,85,0.00,,,0.00,Wunderground v.1.15,2013-08-01 22:30:00,
2013-08-01 18:35:00,66.8,62.1,29.83,SSE,159,6.0,7.0,85,0.00,,,0.00,Wunderground v.1.15,2013-08-01 22:35:00,
2013-08-01 18:40:00,66.6,62.3,29.83,SSE,149,6.0,8.0,86,0.00,,,0.00,Wunderground v.1.15,2013-08-01 22:40:00,
2013-08-01 18:50:00,66.3,62.3,29.83,SE,136,6.0,6.0,87,0.00,,,0.00,Wunderground v.1.15,2013-08-01 22:50:00,
2013-08-01 18:55:00,66.2,62.2,29.83,SE,139,4.0,7.0,87,0.00,,,0.00,Wunderground v.1.15,2013-08-01 22:55:00,
2013-08-01 19:05:00,65.8,62.5,29.83,ENE,70,4.0,4.0,89,0.00,,,0.00,Wunderground v.1.15,2013-08-01 23:05:00,
2013-08-01 19:10:00,65.6,62.6,29.83,SE,135,4.0,6.0,90,0.00,,,0.00,Wunderground v.1.15,2013-08-01 23:10:00,
2013-08-01 19:15:00,65.4,62.4,29.83,SSE,167,5.0,9.0,90,0.00,,,0.00,Wunderground v.1.15,2013-08-01 23:15:00,
2013-08-01 19:20:00,65.2,62.5,29.83,SE,138,6.0,7.0,91,0.00,,,0.00,Wunderground v.1.15,2013-08-01 23:20:00,
2013-08-01 19:35:00,64.7,62.3,29.83,SE,143,3.0,5.0,92,0.28,,,0.04,Wunderground v.1.15,2013-08-01 23:35:00,
2013-08-01 19:40:00,64.5,62.4,29.83,South,172,4.0,5.0,93,0.11,,,0.04,Wunderground v.1.15,2013-08-01 23:40:00,
2013-08-01 19:50:00,64.1,62.3,29.83,SSE,156,4.0,8.0,94,0.09,,,0.06,Wunderground v.1.15,2013-08-01 23:50:00,
2013-08-01 20:00:00,63.8,62.0,29.83,SE,130,6.0,6.0,94,0.05,,,0.06,Wunderground v.1.15,2013-08-02 00:00:00,
2013-08-01 20:05:00,63.7,61.9,29.83,SSE,149,5.0,6.0,94,0.04,,,0.06,Wunderground v.1.15,2013-08-02 00:05:00,
2013-08-01 20:21:00,63.4,61.9,29.83,East,101,5.0,5.0,95,0.06,,,0.08,Wunderground v.1.15,2013-08-02 00:21:00,
2013-08-01 20:25:00,63.4,61.9,29.83,SSE,158,4.0,5.0,95,0.06,,,0.08,Wunderground v.1.15,2013-08-02 00:25:00,
2013-08-01 20:35:00,63.3,61.8,29.83,SSE,147,2.0,3.0,95,0.04,,,0.08,Wunderground v.1.15,2013-08-02 00:35:00,
2013-08-01 20:50:00,63.3,62.1,29.83,NE,39,2.0,2.0,96,0.00,,,0.09,Wunderground v.1.15,2013-08-02 00:50:00,
2013-08-01 20:55:00,63.3,62.1,29.83,East,89,3.0,3.0,96,0.00,,,0.09,Wunderground v.1.15,2013-08-02 00:55:00,
2013-08-01 21:05:00,63.3,62.1,29.83,SE,144,3.0,3.0,96,0.00,,,0.09,Wunderground v.1.15,2013-08-02 01:05:00,
2013-08-01 21:10:00,63.3,62.1,29.83,SE,136,3.0,3.0,96,0.00,,,0.09,Wunderground v.1.15,2013-08-02 01:10:00,
2013-08-01 21:15:00,63.3,62.1,29.83,ESE,113,2.0,3.0,96,0.00,,,0.09,Wunderground v.1.15,2013-08-02 01:15:00,
2013-08-01 21:30:00,63.3,62.1,29.83,East,89,2.0,2.0,96,0.00,,,0.09,Wunderground v.1.15,2013-08-02 01:30:00,
2013-08-01 21:35:00,63.3,62.1,29.83,East,98,2.0,2.0,96,0.00,,,0.09,Wunderground v.1.15,2013-08-02 01:35:00,
2013-08-01 21:40:00,63.4,62.2,29.82,SSE,161,3.0,3.0,96,0.00,,,0.09,Wunderground v.1.15,2013-08-02 01:40:00,
2013-08-01 21:45:00,63.3,62.1,29.82,ESE,117,2.0,3.0,96,0.00,,,0.10,Wunderground v.1.15,2013-08-02 01:45:00,
2013-08-01 21:55:00,63.3,62.1,29.82,SE,140,2.0,6.0,96,0.00,,,0.10,Wunderground v.1.15,2013-08-02 01:55:00,
2013-08-01 22:05:00,63.2,62.0,29.82,SE,136,3.0,6.0,96,0.00,,,0.10,Wunderground v.1.15,2013-08-02 02:05:00,
2013-08-01 22:11:00,63.2,62.0,29.82,SE,137,2.0,2.0,96,0.00,,,0.10,Wunderground v.1.15,2013-08-02 02:11:00,
2013-08-01 22:15:00,63.2,62.0,29.82,SE,127,2.0,2.0,96,0.00,,,0.10,Wunderground v.1.15,2013-08-02 02:15:00,
2013-08-01 22:30:00,63.2,62.0,29.82,SSE,158,2.0,2.0,96,0.00,,,0.10,Wunderground v.1.15,2013-08-02 02:30:00,
2013-08-01 22:35:00,63.1,61.9,29.82,East,98,2.0,3.0,96,0.00,,,0.10,Wunderground v.1.15,2013-08-02 02:35:00,
2013-08-01 22:40:00,63.1,61.9,29.81,SE,144,3.0,3.0,96,0.00,,,0.10,Wunderground v.1.15,2013-08-02 02:40:00,
2013-08-01 22:45:00,63.1,61.9,29.81,SE,144,2.0,3.0,96,0.00,,,0.10,Wunderground v.1.15,2013-08-02 02:45:00,
2013-08-01 22:55:00,63.1,61.9,29.81,SE,140,3.0,3.0,96,0.00,,,0.10,Wunderground v.1.15,2013-08-02 02:55:00,
2013-08-01 23:00:00,63.1,61.9,29.81,SSE,167,3.0,3.0,96,0.00,,,0.10,Wunderground v.1.15,2013-08-02 03:00:00,
2013-08-01 23:05:00,63.1,61.9,29.81,SSE,157,3.0,3.0,96,0.00,,,0.10,Wunderground v.1.15,2013-08-02 03:05:00,
2013-08-01 23:10:00,63.1,61.9,29.81,SE,134,3.0,3.0,96,0.00,,,0.10,Wunderground v.1.15,2013-08-02 03:10:00,
2013-08-01 23:15:00,63.1,61.9,29.81,SE,132,2.0,3.0,96,0.00,,,0.10,Wunderground v.1.15,2013-08-02 03:15:00,
2013-08-01 23:20:00,63.1,62.2,29.81,SE,135,3.0,3.0,97,0.00,,,0.10,Wunderground v.1.15,2013-08-02 03:20:00,
2013-08-01 23:25:00,63.1,61.9,29.81,SE,134,2.0,3.0,96,0.00,,,0.10,Wunderground v.1.15,2013-08-02 03:25:00,
2013-08-01 23:30:00,63.1,62.2,29.81,SE,138,1.0,2.0,97,0.00,,,0.10,Wunderground v.1.15,2013-08-02 03:30:00,
2013-08-01 23:35:00,63.0,61.8,29.81,SSE,148,2.0,2.0,96,0.00,,,0.10,Wunderground v.1.15,2013-08-02 03:35:00,
2013-08-01 23:40:00,63.0,61.8,29.81,ESE,120,3.0,7.0,96,0.00,,,0.10,Wunderground v.1.15,2013-08-02 03:40:00,
2013-08-01 23:50:00,63.0,61.8,29.81,SSE,150,2.0,2.0,96,0.00,,,0.10,Wunderground v.1.15,2013-08-02 03:50:00,
2013-08-01 23:55:00,63.0,61.8,29.81,ESE,119,1.0,2.0,96,0.00,,,0.10,Wunderground v.1.15,2013-08-02 03:55:00,